www.pogodaiklimat.ru

Погода и климат >> Архив погоды >> Великобритания >> Баллипатрик Форест


ПОГОДА в Баллипатрик Форест

  • Прогноз погоды в Баллипатрик Форест
  • Монитор погоды в Баллипатрик Форест

АРХИВ ПОГОДЫ в Баллипатрик Форест

Время (UTC), дата Ветер
(напр.,м/с)
 
Видим.   Явления Облачность Т
(С)
Тd
(С)
f
(%)
Тe
(С)
Тes
(С)
Комфортность P
(гПа)
Po
(гПа)
Тmin
(С)
Tmax
(С)
R
(мм)
R24
(мм)
S
(см)
01 10.09 СЗ 5 21 км н/о +11.2 +8.3 82 +9 +9 1018.1 999.2
02 10.09 С 4 23 км н/о +10.8 +8.2 84 +9 +9 1018.2 999.3
03 10.09 СЗ 3 18 км н/о +10.2 +8.3 88 +8 +8 1018.2 999.3
04 10.09 З 2 15 км н/о +9.2 +7.5 89 +7 +7 1018.3 999.3
05 10.09 З 2 16 км н/о +8.4 +7.1 92 +6 +6 1018.6 999.5
06 10.09 З 4 13 км н/о +8.2 +7.2 93 +5 +5 1018.8 999.7 +8.2
07 10.09 ЮЗ 4 12 км н/о +9.0 +8.0 93 +6 +6 1019.5 1000.4
08 10.09 ЮЗ 3 15 км н/о +10.2 +8.3 88 +8 +8 1019.4 1000.4
09 10.09 З 5 14 км н/о +11.6 +8.6 82 +9 +9 1019.1 1000.2
10 10.09 З 4 27 км н/о +12.8 +7.3 69 +11 +11 1018.5 999.7
11 10.09 З 6 20 км н/о +13.3 +7.9 70 +11 +11 1018.4 999.6
12 10.09 ЮЗ 6 24 км н/о +12.8 +8.2 74 +10 +10 1017.7 998.9
13 10.09 ЮЗ 7 21 км н/о +12.8 +8.1 73 +10 +10 1017.0 998.3
14 10.09 ЮЗ 7 13 км слаб. морось с дождем н/о +12.1 +9.9 86 +9 +9 1016.1 997.3
15 10.09 ЮЗ 4 17 км в посл. час дождь н/о +11.7 +9.9 89 +9 +9 1014.9 996.1
16 10.09 ЮЗ 12-19
{19}
40 км н/о +12.4 +10.4 88 +8 +8 1012.7 994.0
17 10.09 ЮЗ 8-14
{17}
40 км слаб. дождь н/о +11.9 +10.7 92 +8 +8 1012.0 993.3
18 10.09 ЮЗ 12-17
{17}
29 км в посл. час дождь н/о +12.3 +11.1 92 +8 +8 1010.0 991.4 +13.6 0.8
19 10.09 ЮЗ 15-23
{23}
14 км слаб. ливневой дождь н/о +12.8 +11.5 92 +9 +9 1008.6 990.0
20 10.09 ЮЗ 14-21
{23}
30 км в посл. час дождь н/о +13.2 +12.1 93 +9 +9 1008.9 990.4
21 10.09 ЮЗ 13-19
{21}
35 км н/о +13.8 +12.7 93 +10 +10 1008.5 990.0
22 10.09 ЮЗ 12-19
{19}
45 км н/о +14.1 +13.3 95 +11 +11 1007.1 988.6
23 10.09 З 11 40 км в посл. час дождь н/о +14.8 +14.0 95 +12 +12 1006.8 988.3
00 11.09 З 11-17
{19}
9000 м слаб. ливневой дождь н/о +15.3 +14.7 96 +13 +13 1006.7 988.3 0.6
01 11.09 З 9
{15}
12 км в посл. час дождь н/о +15.6 +14.8 95 +14 +14 1006.5 988.1
02 11.09 З 9
{13}
3300 м сильн. морось н/о +15.2 +15.0 99 +13 +13 1006.5 988.1
03 11.09 СЗ 9
{15}
26 км в посл. час дождь н/о +13.9 +13.4 97 +11 +11 1007.2 988.7
04 11.09 З 8
{15}
40 км в посл. час дождь н/о +13.0 +11.3 89 +10 +10 1007.8 989.2
05 11.09 З 8 17 км н/о +12.6 +11.3 92 +10 +10 1008.1 989.5
06 11.09 З 9 17 км н/о +12.1 +10.9 92 +9 +9 1008.9 990.2 +12.1 5
07 11.09 З 9
{15}
16 км н/о +12.0 +9.8 86 +8 +8 1010.0 991.3
08 11.09 З 9
{14}
16 км н/о +12.7 +9.8 83 +10 +10 1010.7 992.0
09 11.09 З 8
{15}
7000 м дым н/о +12.9 +10.5 85 +10 +10 1011.3 992.6
10 11.09 З 8
{16}
16 км в посл. час дождь н/о +14.3 +10.7 79 +12 +12 1011.9 993.4
11 11.09 З 8
{13}
35 км в посл. час дождь н/о +14.1 +11.6 85 +12 +12 1012.8 994.2
12 11.09 СЗ 11
{15}
21 км н/о +14.4 +9.0 70 +12 +12 1013.4 994.8 0.2
13 11.09 З 8-14
{15}
40 км в посл. час дождь н/о +13.3 +10.5 83 +10 +10 1014.6 995.9
14 11.09 СЗ 8
{14}
22 км н/о +14.5 +8.7 68 +12 +12 1015.0 996.4
15 11.09 З 7
{15}
28 км н/о +14.8 +9.4 70 +13 +13 1015.2 996.6
16 11.09 СЗ 7-12
{14}
35 км н/о +14.9 +9.3 69 +13 +13 1016.0 997.4
17 11.09 З 7 22 км н/о +14.5 +8.6 68 +12 +12 1016.5 997.8
18 11.09 З 7 30 км н/о +13.1 +8.4 73 +11 +11 1017.3 998.5 +15.8 0.2
19 11.09 З 6 26 км н/о +12.4 +8.6 78 +10 +10 1017.7 998.9
20 11.09 З 5 26 км н/о +11.9 +8.6 80 +9 +9 1018.2 999.3
21 11.09 З 4 24 км н/о +11.6 +8.9 83 +10 +10 1018.8 1000.0
22 11.09 З 5 23 км н/о +11.3 +9.1 86 +9 +9 1018.9 1000.0
23 11.09 З 5 20 км н/о +11.6 +9.2 85 +9 +9 1018.9 1000.0
00 12.09 З 6 3500 м дымка н/о +11.0 +10.2 95 +8 +8 1019.0 1000.1
01 12.09 ЮЗ 5 23 км в посл. час дождь н/о +11.4 +10.3 93 +9 +9 1018.8 1000.0
02 12.09 ЮЗ 6 14 км н/о +11.5 +10.5 94 +9 +9 1018.9 1000.1
03 12.09 ЮЗ 4 35 км н/о +11.8 +10.5 92 +9 +9 1018.5 999.7
04 12.09 ЮЗ 3 21 км слаб. ливневой дождь н/о +12.0 +10.7 92 +10 +10 1018.2 999.4
05 12.09 ЮЗ 5 13 км в посл. час дождь н/о +12.2 +11.0 92 +10 +10 1018.0 999.2
06 12.09 ЮЗ 4 4500 м морось с дождем н/о +12.0 +11.5 97 +10 +10 1018.1 999.2 +10.9 0.4
07 12.09 ЮЗ 3 2800 м дождь н/о +12.2 +11.7 97 +11 +11 1018.0 999.2
08 12.09 ЮЗ 3 5000 м дождь н/о +12.5 +12.1 97 +11 +11 1018.1 999.3
09 12.09 ЮЗ 2 3200 м дождь н/о +13.0 +12.7 98 +12 +12 1018.1 999.3
10 12.09 С 2 3600 м слаб. дождь н/о +13.3 +13.0 98 +12 +12 1018.3 999.6
11 12.09 С 4 4100 м морось с дождем н/о +13.0 +12.8 99 +11 +11 1019.1 1000.3
12 12.09 СЗ 6 4400 м слаб. морось с дождем н/о +12.7 +12.7 100 +10 +10 1020.0 1001.2 4
13 12.09 С 6 1900 м морось с дождем н/о +11.8 +11.7 99 +9 +9 1021.3 1002.4
14 12.09 СЗ 7 35 км в посл. час дождь н/о +13.0 +11.1 88 +10 +10 1022.4 1003.5
15 12.09 СЗ 7 27 км в посл. час дождь н/о +12.8 +9.7 81 +10 +10 1023.6 1004.8
16 12.09 СЗ 8 21 км слаб. морось с дождем н/о +12.7 +9.1 79 +10 +10 1024.5 1005.6
17 12.09 СЗ 7 28 км в посл. час дождь н/о +12.4 +9.2 81 +10 +10 1025.6 1006.6
18 12.09 СЗ 5 26 км н/о +12.2 +8.6 79 +10 +10 1026.6 1007.6 +13.8 5
19 12.09 СЗ 5 24 км н/о +10.9 +8.1 83 +8 +8 1027.5 1008.4
20 12.09 З 4 21 км н/о +10.4 +7.7 83 +8 +8 1028.7 1009.6
21 12.09 З 5 21 км н/о +10.5 +8.2 86 +7 +7 1029.5 1010.3
22 12.09 З 4 18 км н/о +8.3 +7.2 93 +5 +5 1030.1 1010.8
23 12.09 З 5 21 км н/о +8.4 +7.4 93 +5 +5 1030.6 1011.2
00 13.09 З 7 20 км н/о +9.8 +7.9 88 +6 +6 1030.8 1011.6
01 13.09 З 7 25 км н/о +10.2 +8.3 88 +6 +6 1031.4 1012.2
02 13.09 З 7 19 км н/о +10.3 +8.6 89 +7 +7 1031.6 1012.4
03 13.09 З 5 21 км н/о +9.9 +8.5 91 +7 +7 1031.9 1012.7
04 13.09 З 5 19 км н/о +9.9 +8.0 88 +7 +7 1032.5 1013.3
05 13.09 ЮЗ 5 19 км н/о +8.6 +7.7 94 +5 +5 1033.1 1013.8
06 13.09 ЮЗ 5 17 км н/о +8.1 +7.1 93 +4 +4 1034.0 1014.6 +8.0
07 13.09 ЮЗ 5 17 км н/о +8.8 +7.6 92 +5 +5 1034.3 1015.0
08 13.09 З 6 19 км н/о +11.5 +9.2 86 +9 +9 1034.8 1015.6
09 13.09 З 5 22 км н/о +11.5 +9.0 85 +9 +9 1035.4 1016.2
10 13.09 З 5 20 км н/о +12.2 +9.2 82 +10 +10 1035.7 1016.6
11 13.09 З 6 17 км н/о +13.5 +9.0 74 +11 +11 1035.9 1016.8
12 13.09 З 7 26 км н/о +14.0 +7.9 67 +12 +12 1036.1 1017.1
13 13.09 З 5 30 км н/о +14.3 +7.0 61 +13 +13 1036.5 1017.5
14 13.09 СЗ 4 30 км н/о +15.4 +8.8 65 +15 +15 1035.8 1016.9
15 13.09 С 4 17 км н/о +14.6 +9.6 72 +13 +13 1035.7 1016.7
16 13.09 С 3 15 км н/о +13.3 +9.8 79 +12 +12 1035.9 1016.8
17 13.09 С 3 24 км в посл. час дождь н/о +13.6 +9.9 78 +12 +12 1035.7 1016.7
18 13.09 СЗ 1 19 км н/о +12.8 +9.8 82 +14 +14 1036.1 1017.0 +15.6 0.0
19 13.09 Ю 1 16 км н/о +11.7 +9.5 86 +11 +11 1035.8 1016.6
20 13.09 Ю 3 16 км н/о +11.3 +9.5 89 +9 +9 1035.8 1016.6
21 13.09 Ю 4 16 км н/о +11.4 +9.4 88 +9 +9 1035.2 1016.0
22 13.09 Ю 3 16 км н/о +11.2 +9.0 86 +9 +9 1035.0 1015.8
23 13.09 З 1 21 км н/о +9.4 +6.7 83 +9 +9 1034.9 1015.6
00 14.09 ЮЗ 2 30 км н/о +10.7 +7.4 80 +9 +9 1034.6 1015.4
01 14.09 ЮЗ 4 28 км н/о +11.3 +8.0 80 +9 +9 1033.4 1014.3
02 14.09 З 7 30 км н/о +11.4 +7.8 79 +8 +8 1032.8 1013.7
03 14.09 ЮЗ 7 30 км н/о +11.9 +7.6 75 +9 +9 1031.6 1012.5
04 14.09 ЮЗ 5 40 км н/о +12.1 +7.6 74 +10 +10 1030.6 1011.6
05 14.09 ЮЗ 4 35 км н/о +12.5 +7.8 73 +11 +11 1029.4 1010.4
06 14.09 З 8
{13}
30 км н/о +12.1 +8.2 77 +9 +9 1028.4 1009.3 +8.3
07 14.09 ЮЗ 12-18
{18}
35 км н/о +12.5 +8.6 77 +9 +9 1027.4 1008.5
08 14.09 ЮЗ 12-17
{18}
45 км н/о +12.6 +8.6 77 +9 +9 1026.9 1007.9
09 14.09 ЮЗ 12
{21}
45 км н/о +12.8 +8.1 73 +9 +9 1026.9 1008.0
10 14.09 З 11
{16}
40 км н/о +13.2 +7.8 70 +10 +10 1026.8 1007.9
11 14.09 ЮЗ 9-15
{16}
35 км н/о +13.7 +7.8 68 +11 +11 1026.2 1007.3
12 14.09 ЮЗ 9
{15}
35 км н/о +14.3 +8.7 69 +12 +12 1024.9 1006.1
13 14.09 З 9
{15}
40 км н/о +15.0 +9.6 70 +13 +13 1024.4 1005.6
14 14.09 ЮЗ 11
{16}
30 км н/о +15.1 +10.7 75 +13 +13 1023.7 1004.9
15 14.09 ЮЗ 10-15
{17}
29 км н/о +16.4 +12.1 76 +15 +15 1022.4 1003.8
16 14.09 З 12-17
{17}
27 км н/о +17.0 +12.8 76 +15 +15 1021.0 1002.4
17 14.09 ЮЗ 8
{20}
35 км н/о +16.3 +13.1 81 +15 +15 1021.3 1002.7
18 14.09 З 9-14
{14}
35 км н/о +16.4 +13.3 82 +15 +15 1021.1 1002.5 +17.3
19 14.09 З 9
{13}
30 км н/о +15.7 +13.3 86 +14 +14 1020.6 1001.9
20 14.09 З 11-17
{17}
35 км н/о +15.5 +13.6 88 +13 +13 1020.5 1001.9
21 14.09 З 9
{18}
5000 м морось н/о +14.5 +14.2 98 +12 +12 1021.2 1002.4
22 14.09 СЗ 7
{14}
800 м сильн. дождь н/о +12.1 +11.9 99 +9 +9 1022.2 1003.3
23 14.09 СЗ 7 4000 м морось н/о +11.2 +11.1 99 +8 +8 1022.6 1003.6
00 15.09 СЗ 6 13 км слаб. ливневой дождь н/о +11.4 +10.9 97 +8 +8 1022.4 1003.5 4
01 15.09 З 7 13 км в посл. час дождь н/о +11.6 +10.4 92 +8 +8 1022.4 1003.4
02 15.09 З 7 9000 м дым н/о +11.6 +10.6 94 +8 +8 1022.2 1003.3
03 15.09 СЗ 6 10 км дым н/о +11.1 +10.0 93 +8 +8 1022.8 1003.8
04 15.09 СЗ 5 9000 м дым н/о +10.8 +9.7 93 +8 +8 1022.4 1003.4
05 15.09 СЗ 5 9000 м дым н/о +11.1 +9.9 92 +8 +8 1022.6 1003.6
06 15.09 СЗ 5 9000 м в посл. час дождь н/о +11.3 +9.1 86 +9 +9 1022.7 1003.7 +10.7 4
07 15.09 СЗ 4 10 км н/о +10.7 +8.3 85 +8 +8 1023.6 1004.6
08 15.09 СЗ 3 11 км в посл. час дождь н/о +11.2 +9.0 86 +10 +10 1023.8 1004.8
09 15.09 СЗ 4 14 км в посл. час дождь н/о +11.1 +8.3 83 +9 +9 1024.4 1005.4
10 15.09 СЗ 3 13 км слаб. ливневой дождь н/о +11.1 +9.9 92 +9 +9 1024.5 1005.5
11 15.09 СЗ 5 11 км слаб. дождь н/о +11.6 +9.8 89 +9 +9 1024.2 1005.2
12 15.09 СЗ 4 16 км в посл. час дождь н/о +11.9 +9.1 83 +10 +10 1024.5 1005.5 0.4
13 15.09 СЗ 4 16 км н/о +12.5 +8.8 78 +11 +11 1024.4 1005.5
14 15.09 С 3 17 км н/о +11.7 +9.4 86 +10 +10 1024.4 1005.4
15 15.09 СЗ 2 16 км в посл. час дождь н/о +11.1 +10.0 93 +10 +10 1024.2 1005.2
16 15.09 СЗ 3 22 км н/о +11.3 +8.5 83 +10 +10 1023.8 1004.8
17 15.09 З 2 24 км н/о +11.1 +8.5 84 +10 +10 1023.4 1004.4
18 15.09 З 2 18 км н/о +10.8 +8.5 86 +9 +9 1023.6 1004.6 +13.4 0.6
19 15.09 ЮЗ 2 20 км н/о +10.2 +8.8 91 +9 +9 1023.6 1004.5
20 15.09 ЮЗ 2 21 км н/о +10.0 +8.8 92 +8 +8 1023.6 1004.5
21 15.09 ЮЗ 2 15 км н/о +9.9 +8.9 93 +9 +9 1023.6 1004.5
22 15.09 штиль 0 16 км н/о +9.3 +8.4 94 +8 +8 1023.9 1004.8
23 15.09 С 1 16 км н/о +8.4 +7.4 93 +9 +9 1023.8 1004.7
00 16.09 ЮВ 1 12 км дымка н/о +7.9 +7.6 98 +8 +8 1024.1 1004.9
01 16.09 ЮЗ 1 16 км н/о +7.7 +7.5 99 +7 +7 1023.8 1004.6
02 16.09 ЮВ 1 17 км н/о +8.4 +8.3 99 +8 +8 1023.4 1004.2
03 16.09 ЮЗ 2 13 км н/о +8.4 +7.7 95 +7 +7 1023.5 1004.4
04 16.09 ЮЗ 3 15 км н/о +9.1 +8.6 97 +6 +6 1023.1 1004.0
05 16.09 ЮЗ 3 19 км н/о +9.4 +8.5 94 +7 +7 1023.0 1003.9
06 16.09 З 3 15 км н/о +9.4 +8.6 95 +7 +7 1023.2 1004.1 +7.0
07 16.09 З 3 14 км в посл. час дождь н/о +9.8 +8.9 94 +7 +7 1023.3 1004.2
08 16.09 З 3 19 км н/о +10.6 +9.4 92 +9 +9 1023.7 1004.7
09 16.09 СЗ 4 21 км н/о +11.9 +9.3 84 +10 +10 1024.0 1005.0
10 16.09 СЗ 4 20 км н/о +11.9 +8.6 80 +10 +10 1024.6 1005.6
11 16.09 СЗ 5 25 км в посл. час дождь н/о +12.3 +9.2 81 +10 +10 1024.8 1005.9
12 16.09 СЗ 5 30 км н/о +12.6 +8.9 78 +10 +10 1024.7 1005.8 0.2
13 16.09 СЗ 6 45 км н/о +13.1 +7.7 70 +11 +11 1024.9 1006.0
14 16.09 СЗ 6 30 км н/о +12.5 +7.5 72 +10 +10 1024.9 1005.9
15 16.09 СЗ 6 40 км н/о +12.5 +7.8 73 +10 +10 1024.8 1005.9
16 16.09 СЗ 6 40 км н/о +12.2 +7.5 73 +10 +10 1024.6 1005.7
17 16.09 СЗ 5 25 км н/о +12.1 +7.7 74 +10 +10 1024.9 1005.9
18 16.09 СЗ 6 28 км н/о +11.3 +6.3 71 +9 +9 1025.0 1006.0 +13.6 0.2
19 16.09 СЗ 4 30 км н/о +11.1 +6.8 75 +9 +9 1025.4 1006.4
20 16.09 СЗ 4 35 км н/о +11.0 +6.7 75 +9 +9 1025.4 1006.4
21 16.09 СЗ 4 24 км н/о +10.7 +6.7 76 +8 +8 1025.5 1006.4
22 16.09 СЗ 5 26 км н/о +10.8 +7.4 80 +8 +8 1025.6 1006.6
23 16.09 СЗ 4 24 км н/о +9.8 +7.2 84 +7 +7 1026.0 1006.9
00 17.09 СЗ 4 30 км н/о +10.1 +6.8 80 +7 +7 1025.6 1006.5
01 17.09 СЗ 4 25 км н/о +10.1 +7.4 83 +7 +7 1025.7 1006.6

 

Местоположение метеостанции Баллипатрик Форест (Великобритания): широта 55.18 долгота -6.17 высота над уровнем моря 156 м.

В архиве по умолчанию представлена погода в Баллипатрик Форест за последнюю неделю. Архивные данные за месяц целиком и за предыдущие месяцы, начиная с января 2011 года, Вы можете получить, выбрав интересующий диапазон дат из раскрывающегося списка и нажав кнопку "Ввод!".


*Определитесь, кто Вы:
робот инопланетянин человек

Внимание! Время в таблицах - всемирное. Для получения местного времени необходимо прибавить поправку, которая равна 0 ч.

Смотрите также архив погоды в соседних городах и на ближайших метеорологических станциях:

Погода в Портгленоне (Великобритания) (39 км)
Погода в Макрайханише (Великобритания) (41 км)
Погода на Магиллигане (Великобритания) (48 км)
Погода в Порт-Эллене (Великобритания) (56 км)
Погода в Белфасте (Великобритания) (59 км)
Погода на Озере Lough Fea (Великобритания) (66 км)
Погода в Малин Хед (Ирландия) (77 км)
Погода в Аэропорту West Freugh (Великобритания) (86 км)
Погода в Каследерге (Великобритания) (105 км)
Погода в Прествике (Великобритания) (107 км)

Пояснения к столбцам:

Ветер - указаны скорость ветра в м/с - средняя за 10 мин, порывы в срок и между сроками (в фигурных скобках) и направление, откуда дует ветер: С - северный, СВ - северо-восточный, В - восточный, ЮВ - юго-восточный, Ю - южный, ЮЗ - юго-западный, З - западный, СЗ - северо-западный.
Видимость - горизонтальная дальность видимости в метрах или километрах. При видимости от 1 до 10 км при отсутствии осадков обычно наблюдается дымка, при ухудшении видимости до 1 км и менее - туман. В сухую погоду видимость может ухудшаться дымом, пылью или мглою.
Явления - указаны атмосферные явления, наблюдавшиеся в срок или в последний час перед сроком; фигурными скобками обозначены явления, наблюдавшиеся между сроками (за 1-3 часа до срока); квадратными скобками обозначены град или гололедные отложения с указанием их диаметра в мм.
Облачность - указаны через наклонную черту общая и нижняя облачность в баллах и высота нижней границы облаков в метрах; квадратными скобками обозначены формы облаков: Ci - перистые, Cs - перисто-слоистые, Cc - перисто-кучевые, Ac - высококучевые, As - высокослоистые, Sc - слоисто-кучевые, Ns - слоисто-дождевые, Cu - кучевые, Cb - кучево-дождевые. Подробнее классификацию облаков см. в Атласе облаков (PDF).
T - Температура воздуха - температура, измеренная на высоте 2 м над землей.
Td - Температура точки росы - температура, при понижении до которой содержащийся в воздухе водяной пар достигнет насыщения.
f - Относительная влажность воздуха - влажноcть воздуха, измеренная на высоте 2 м над землей.
Te - Эффективная температура - температура, которую ощущает одетый по сезону человек в тени. Характеристика душности погоды. При расчете учитывается влияние влажности воздуха и скорости ветра на теплоощущения человека.
Tes - Эффективная температура на солнце - температура, которую ощущает человек, с поправкой на солнечный нагрев. Характеристика знойности погоды. Зависит от высоты солнца над горизонтом, облачности и скорости ветра. Ночью, в пасмурную погоду, а также при ветре 12 м/с и более поправка равна нулю.
P - Атмосферное давление - приведенное к уровню моря атмосферное давление.
Po - Атмосферное давление - измеренное на уровне метеостанции атмосферное давление.
Tmin - Минимальная температура - минимум температуры воздуха на высоте 2 м над землей.
Tmax - Максимальная температура - максимум температуры воздуха на высоте 2 м над землей.
R - Количество осадков - Количество выпавших осадков за период времени, мм. При наведении курсора мыши на число - период времени, за который выпало указанное количество осадков.
R24 - Количество осадков - Количество выпавших осадков за 24 часа, мм.
S - Снежный покров - Высота снежного покрова, см. При наведении курсора мыши на число - состояние снежного покрова и степень покрытия местности в баллах.